sat.trackr.live / text

‹ back to catalog

KUIPER-00101

NORAD 65947 · 2025-228A

PAYLOAD ACTIVE UNKNOWN

§ Identity

Operator
Country
US
Launch date
2025-10-14
Launch site
AFETR
Launch vehicle
Mass (kg)
RCS (m²)

External: N2YO · Heavens-Above · Gunter

§ Orbital elements

Epoch: 2026-09-20T07:35:15.462816Z

Period
97.30 min
Inclination
51.9017°
Eccentricity
0.0000398
Mean motion
14.79969621 rev/d
Perigee alt
629.1 km
Apogee alt
629.7 km
Semi-major
7,007.6 km
B*
-1.4135e-3
RAAN
219.9026°
Arg perigee
58.8845°
Mean anomaly
301.2157°
Rev number
5,205

§ Raw data

KUIPER-001011 65947U 25228A   26263.31615119 -.00010988  00000+0 -14135-2 0  99992 65947  51.9017 219.9026 0000398  58.8845 301.2157 14.79969621 52058

JSON: /api/v1/satellites/65947 · /tle

For live sub-satellite position, see the globe view (requires WebGL).

§ Visibility from observer

Set your observer location to see the next 7 days of passes ≥ 10°. The values pass through the URL so the page stays shareable.

No JS? Fill the form by hand. The geolocation button needs JavaScript.